Погода в Велиже

Погода в Велиже : погода сейчас, прогноз погоды и архив. Всё, что Вы хотите узнать о погоде в Велиже!

Поиск расширенной информации на нашем сайте:

Другие новости

Новости СМИ2

Главная страница сайта

Новости сайта

03.07.2017

Напоминаем, что на нашем специализированном сайте Метеоцентр.Азия вы можете получить высокодетализированные автоматические прогнозы погоды по пунктам России, СНГ и мира в авиационном формате (включающие направление и скорость ветра, видимость, явления погоды, количество и форму облачности, нижнюю и верхнюю границу облачности).


Погода в Велиже - сегодня

Время (UTC), дата Ветер
(°,м/с) 
Видим.   Явления Облачность Т
(°С)
Тd
(°С)
f(%) Тe
(°С)
Pmin
(гПа)
dP
(гПа)
Po
(мм)
O2
(г/м3)
Тmin Tmax R s Состояние
почвы
03 18.04.18 260 (З) 20000 м  {ливн. осадки}  10/10 600 м кучево-дожд. 
[Cb cap]
+6.3 +4.8 90 +4  1015.3  0.1  746  293  +6.3       
06 18.04.18 250 (З) 20000 м  {ливн. осадки}  10/10 700 м кучево-дожд. 
[Cb cap]
+6.3 +3.8 84 +4  1015.9  0.6  747  294  +6.1      влажная 
09 18.04.18 270 (З) 20000 м    10/10 700 м кучево-дожд. 
[Cb cap]
+7.3 +5.8 90 +7  1015.4  0.6  746  292           
18 18.04.18 280 (З) 5{11}  9000 м  слаб. ливневой дождь  10/10 600 м кучево-дожд. 
[Cb cap]
+6.9 +6 94 +5  1015  -0.4  746  292    +10.2  0.3     
03 19.04.18 290 (З) 6{11}  9000 м  слаб. ливневой дождь  10/10 600 м кучево-дожд. 
[Cb cap]
+6.5 +5.1 91 +4  1013.3  -0.4  745  292  +6.3       
06 19.04.18 310 (СЗ) 6{12}  15000 м  {ливн. осадки}  10/10 700 м кучево-дожд. 
[Cb cap]
+7.8 +5.4 85 +6  1013.6  0.4  745  291  +6.3      мокрая 
21 19.04.18 300 (СЗ) 18000 м    ясно 
+7.7 +4.8 82 +6  1018.8  1.2  749  293           
00 20.04.18 300 (СЗ) 15000 м    ясно 
+6.3 +3.8 84 +5  1019.6  0.7  749  295           
09 20.04.18 300 (СЗ) 20000 м    4/4 800 м 
[Cu med, cong]
+14.4 +11.7 84 +18  1020.2  -0.4  750  285           
12 20.04.18 260 (З) 25000 м    6/3 600 м средняя 
[Cu hum|Ac As]
+16.3 +2.9 41 +16  1018.6  -1.4  749  284           
15 20.04.18 270 (З) 25000 м    8/1 600 м средняя 
[Cu hum|Ac As]
+16.9 +2.5 38 +17  1016.3  -2.2  748  283           
21 20.04.18 210 (ЮЗ) 25000 м    ясно 
+10.8 +3 59 +11  1012.5  -2.5  745  288           
00 21.04.18 220 (ЮЗ) 23000 м    ясно 
+10.8 +3 59 +11  1012.5  -2.4  743  287           
09 21.04.18 230 (ЮЗ) 7-11{13}  20000 м    ясно 
+19.3 +9.3 52 +20  996.2  -4.3  733  274           
18 21.04.18 300 (СЗ) 9-15{21}  18000 м    5/5 600 м кучево-дожд. 
[Cb cap]
+9.3 +1.9 60 +7  1002.9  4.2  737  287    +20.5       
03 22.04.18 260 (З) 18000 м    6/6 630 м 
[Sc diur, vesp]
+5.1 +1.1 75 +4  1003.9  0.1  738  292  +5.1         
06 22.04.18 270 (З) 7-11{13}  18000 м    10/10 630 м 
[Sc]
+7.1 +1.5 68 +5  1004.4  0.6  738  290  +5.1        влажная 
21 22.04.18 350 (С) 12000 м    10/10 600 м кучево-дожд. 
[Cb cap]
+2.2 -3.7 65 +2  1014.1  1.9  745  298           
00 23.04.18 290 (З) 12000 м    ясно 
-2.8 -4.5 88 -4  1015.9  1.4  746  304           
03 23.04.18 260 (З) 15000 м    ясно 
-4.1 -4.8 95 -4  1017.2  1.2  747  306  -4.4         
09 23.04.18 010 (С) 23000 м    8/6 900 м верхняя 
[Cu hum|Ci fib]
+6.8 -4.2 45 +6  1017.1  -0.4  748  294           
12 23.04.18 030 (СВ) 25000 м    3/3 600 м 
[Cu hum]
+9.7 -3.8 38 +11  1015.6  -1.2  747  291           
15 23.04.18 280 (З) 25000 м    ясно 
+10.7 -4.7 34 +11  1014.5  -1  746  290           
21 23.04.18 тихо ()   23000 м    ясно 
-1.4 -2.9 89 -1  1014.4  -0.5  745  302           
00 24.04.18 тихо ()   23000 м    ясно 
-2.1 -2.8 95 -2  1013.9  -0.5  745  303           
Время (UTC), дата Ветер
(°,м/с) 
Видим.   Явления Облачность Т
(°С)
Тd
(°С)
f(%) Тe
(°С)
Pmin
(гПа)
dP
(гПа)
Po
(мм)
O2
(г/м3)
Тmin Tmax R s Состояние
почвы

Для получения пояснительной информации подведите курсор к названию столбца.

ПОГОДА в Велиже - архив

Всё, что Вы хотите узнать о погоде в Велиже - удобно и подробно!

Выберите нужную дату (начиная с 1 января 2015* года) и нажмите кнопку "Найти".
Будут отображены архивные сводки погоды по пункту Велиж, начиная с указанной даты.


Отображать данные в формате CSV (для использования в таблицах Excel)


Внимание! Наш архив погоды предназначен исключительно для личного некоммерческого использования в познавательных целях. Если Вам необходимы официальные справки о состоянии погоды (для производственных, юридических, коммерческих и т.п. целей), обращайтесь в органы Росгидромета.

*Примечание: данная дата относится к архиву по метеостанциям СССР (Россия, СНГ, Балтия).
Архив по метеостанциям Зарубежной Европы и Азии (кроме Китая) хранится 10 дней, по другим регионам земного шара (Китай, Африка, Америка, Австралия, Океания) - 1 день.

Велиж - район местоположения метеостанции


Название, широта, долгота, высота метеостанции:
Велиж 55.6°ш. 31.2°д. 183 м над ур. моря [Российская Федерация]

Дополнительная информация

В oтличие oт бoльшинства пoгoдных сайтoв мы публикуем пoдрoбную метеoинфoрмацию в детальнoм прoфессиoнальнoм фoрмате.

Характеристики температуры и влажнoсти вoздуха измеряются на высoте 2 м в тени вдали oт зданий и деревьев.
Скoрoсть ветра измеряется на высoте 10 м (на урoвне рoста челoвека скoрoсть ветра ниже в 1.5-2 раза). Если метеoстанция нахoдится в гoрoде или в лесу, тo скoрoсть ветра занижена на 2-4 м/с пo сравнению с oткрытым местoм. Скoрoсть ветра над акватoриями крупных рек и oзёр, а также на вершинах хoлмoв на 2-5 м/с выше, чем в oбычных услoвиях.
Атмoсфернoе давление в разных тoчках местнoсти мoжет значительнo oтличаться oт давления на метеoстанции, в зависимoсти oт услoвий рельефа (при пoдъёме на 10 м давление пoнижается примернo на 1 мм рт.ст.).